Location: Gleizolles
(44.4833°N, 6.7667°E)
Time: 03:02:28
(UTC+00:00)

N. Korean satellite - Pass Details

Date: 08 December 2021
Orbit: 447 x 491 km, 97.3° (Epoch: 23 January)

Event Time Altitude Azimuth Distance (km) Brightness Sun altitude
Rises 16:37:51 0° 194° (SSW) 2,514 10.8 -7.9°
Reaches altitude 10° 16:40:11 10° 208° (SSW) 1,633 10.1 -8.3°
Maximum altitude 16:43:06 24° 264° (W) 1,002 9.2 -8.7°
Drops below altitude 10° 16:46:00 10° 321° (NW) 1,622 9.4 -9.2°
Sets 16:48:19 0° 336° (NNW) 2,494 10.2 -9.6°
